Regional Weather Roundup
Issued by NWS

Home | Current Version | Previous Version | Text Only | Print | Product List | Glossary Off
Versions: 1 2 3 4 5 6 7 8 9 10 11 12 13 14 15 16 17 18 19 20 21 22 23 24 25 26 27 28 29 30 31 32 33 34 35 36 37 38 39 40 41 42 43 44 45 46 47 48 49 50

000
ASUS43 KMPX 300710
RWRMN
WEATHER ROUNDUP FOR MINNESOTA
NATIONAL WEATHER SERVICE TWIN CITIES/CHANHASSEN MN
200 AM CDT SAT MAY 30 2015


NOTE: "FAIR" INDICATES FEW OR NO CLOUDS BELOW 12,000 FEET WITH NO
SIGNIFICANT WEATHER AND/OR OBSTRUCTIONS TO VISIBILITY. N/A MEANS
CURRENT SKY AND/OR WEATHER CONDITIONS ARE NOT AVAILABLE.

MNZ060>063-068>070-300800-
   Twin Cities Metro

CITY           SKY/WX    TMP DP  RH WIND       PRES   REMARKS
TWIN CITIES    MOCLDY    53  45  74 N23G29    30.07S
ST PAUL        CLOUDY    53  45  74 N8G28     30.08R
CRYSTAL        PTCLDY    52  44  74 N14       30.08R
BLAINE         PTCLDY    52  46  82 N13G20    30.10R
LAKEVILLE      CLOUDY    52  46  82 N16G22    30.07R
EDEN PRAIRIE   CLOUDY    53  46  77 N13G26    30.07R
SOUTH ST PAUL  CLOUDY    54  46  76 N12G17    30.07R
LAKE ELMO      CLOUDY    52  45  76 N9G22     30.08R
$$
MNZ001>005-007-008-013>017-022>024-027-028-300800-
   Northwest Minnesota

CITY           SKY/WX    TMP DP  RH WIND       PRES   REMARKS
BEMIDJI        CLEAR     40  34  81 N9        30.23S
HALLOCK        CLEAR     36  25  64 N12       30.35S
ROSEAU         CLEAR     36  28  75 N12       30.31S
WARROAD        CLEAR     36  30  80 NW7       30.31R
THIEF RVR FALL CLEAR     36  28  75 N14       30.31S
CROOKSTON      CLEAR     37  28  70 N14       30.33S
FOSSTON        CLEAR     34  30  86 N18       30.28S WCI  23
DETROIT LAKES  PTCLDY    39  32  75 N7        30.26R
MOORHEAD       CLEAR     39  28  65 N18G25    30.30R
PARK RAPIDS    MOCLDY    44  32  62 N14G23    30.21R
MAHNOMEN       FAIR      37  31  81 N15       30.27R
$$
MNZ006-009>011-018-025>026-300800-
   North Central Minnesota

CITY           SKY/WX    TMP DP  RH WIND       PRES   REMARKS
BAUDETTE       CLOUDY    41  31  67 N13G20    30.25S
FLAG ISLAND    CLOUDY    37  28  70 N18G26    30.30R
INTL FALLS     MOCLDY    42  33  70 N8        30.22R
WASKISH        MOCLDY    41  36  81 NW10G18   30.25R
BIG FORK       CLEAR     39  34  81 N6        30.20S
LONGVILLE      PTCLDY    45  37  76 N3        30.19R
GRAND RAPIDS   CLEAR     43  34  70 N10       30.18R
CRANE LAKE     PTCLDY    43  36  75 N12G20    30.20R
ORR            CLEAR     43  34  70 NW5       30.16R
COOK           CLEAR     41  36  81 NW3       30.18R
WALKER         FAIR      41  36  80 N6        30.21R
$$
MNZ012-019>021-037-300800-
   Northeast Minnesota

CITY           SKY/WX    TMP DP  RH WIND       PRES   REMARKS
DULUTH         MOCLDY    46  37  71 N6        30.12R
HIBBING        CLEAR     42  35  76 N9        30.16R
EVELETH        PTCLDY    43  34  70 N7        30.15S
DULUTH HARBOR  MOCLDY    52  41  66 N8        30.13S
TWO HARBORS    MOCLDY    48  41  76 N3        30.09S
SILVER BAY     MOCLDY    48  39  71 NW5       30.08R
GRAND MARAIS     N/A     52  41  66 N17G30    30.04R
G MARAIS ARPRT MOCLDY    45  37  76 NW10G20   30.08R
$$
MNZ029>031-032-039>041-046>048-054>057-064-300800-
   West Central Minnesota

CITY           SKY/WX    TMP DP  RH WIND       PRES   REMARKS
FERGUS FALLS   MOCLDY    43  34  70 N15       30.25R
WHEATON        MOCLDY    41  36  81 N15       30.26R
MORRIS         MOCLDY    46  39  76 N14       30.20R
ALEXANDRIA     PTCLDY    46  37  71 N14G22    30.19S
ELBOW LAKE     FAIR      44  37  74 N14G20    30.21S
WADENA         MOCLDY    43  36  75 N8        30.20R
GLENWOOD       PTCLDY    46  39  76 N14       30.18R
APPLETON       PTCLDY    46  39  76 N15       30.20R
BENSON         PTCLDY    46  41  81 N7        30.19R
ORTONVILLE     PTCLDY    45  37  76 N20G25    30.21R
MADISON          N/A     46  39  76 N15       30.20R
WILLMAR        FAIR      48  43  81 N9        30.17R
$$
MNZ033>034-036-042>043-049>051-058-059-300800-
   Central Minnesota

CITY           SKY/WX    TMP DP  RH WIND       PRES   REMARKS
ST CLOUD       PTCLDY    48  41  76 N8        30.14R
SAUK CENTRE    FAIR      47  38  71 N13       30.17R
PAYNESVILLE    CLEAR     45  40  83 NW9       30.16S
AITKIN         PTCLDY    45  36  70 N5        30.16R
PINE RIVER     PTCLDY    46  37  71 N10G16    30.22R
BRAINERD       PTCLDY    46  39  76 N9        30.18R
STAPLES        PTCLDY    45  37  76 N7        30.19S
LONG PRAIRIE   FAIR      45  37  76 NW8       30.17S
LITTLE FALLS   PTCLDY    45  37  76 N3        30.16S
LITCHFIELD     PTCLDY    50  45  81 N14G21    30.14R
BUFFALO        CLOUDY    50  43  77 N10       30.13R
MAPLE LAKE     MOCLDY    50  45  81 N12       30.13R
$$
MNZ037-044-045-052-053-300800-
   East Central Minnesota

CITY           SKY/WX    TMP DP  RH WIND       PRES   REMARKS
PRINCETON      PTCLDY    50  39  66 N13G21    30.13S
MORA           PTCLDY    45  36  70 N3        30.15R
CAMBRIDGE      PTCLDY    52  39  62 N9        30.10S
RUSH CITY      MOCLDY    48  41  76 N8        30.12R
MOOSE LAKE     PTCLDY    45  37  76 N6        30.13R
HINCKLEY       FAIR      46  41  81 N7        30.13R
CLOQUET        MOCLDY    45  37  76 NW7       30.14R
MCGREGOR       PTCLDY    43  37  81 NW7       30.17R
$$
MNZ071>073-080-081-089-090-097-098-300800-
   Southwest Minnesota

CITY           SKY/WX    TMP DP  RH WIND       PRES   REMARKS
MONTEVIDEO     PTCLDY    46  43  87 N13       30.19R
GRANITE FALLS  CLEAR     47  43  84 NW14      30.18R
CANBY          CLEAR     45  39  81 N13       30.20R
MARSHALL       CLEAR     45  37  76 N16       30.16S
REDWOOD FALLS  CLEAR     49  45  86 N10       30.14R
OLIVIA         CLEAR     46  39  76 N13       30.14R
PIPESTONE      CLEAR     46  41  81 N15G23    30.14F
WINDOM         MOCLDY    48  45  87 N17       30.12R
WORTHINGTON    PTCLDY    48  41  76 N20       30.13R
JACKSON        CLOUDY    52  46  82 N12G17    30.11R
TRACY          CLEAR     47  45  91 N13       30.16R
SLAYTON        CLEAR     46  44  93 N21G26    30.14S
$$
MNZ065>067-074>077-082>085-091>093-300800-
   South Central Minnesota

CITY           SKY/WX    TMP DP  RH WIND       PRES   REMARKS
MANKATO        CLOUDY    54  46  76 N17       30.08R
NEW ULM        CLEAR     50  45  81 N9G17     30.11R
ST JAMES       CLOUDY    54  48  82 N14       30.11R
FAIRMONT       CLOUDY    52  45  76 N20       30.08R
GLENCOE        CLEAR     51  46  82 N9        30.10R
FARIBAULT      CLOUDY    54  52  94 N13       30.06R
OWATONNA       CLOUDY    54  50  87 N13       30.04R
WASECA         CLOUDY    52  46  82 N15G21    30.07R
ALBERT LEA     CLOUDY    54  54 100 N15       30.03R
$$
MNZ078>079-086>088-094>096-300800-
   Southeast Minnesota

CITY           SKY/WX    TMP DP  RH WIND       PRES   REMARKS
ROCHESTER      LGT RAIN  54  53  97 N17       30.01R
RED WING       CLOUDY    54  52  94 N12G22    30.02R
STANTON        CLOUDY    54  49  83 N17       30.04R
DODGE CENTER   CLOUDY    54  52  94 N16G22    30.02R
WINONA         DRIZZLE   59  57  94 N8        29.97R
AUSTIN         CLOUDY    54  52  94 N12G22    30.01R
PRESTON        CLOUDY    57  55  95 N14       29.97S
$$
ABBREVIATIONS USED IN REMARKS
   TC - TEMPERATURES IN CELSIUS
  WCI - WIND CHILL INDEX
   HX - HEAT INDEX
  VSB - VISIBILITY
$$



USA.gov is the U.S. government's official web portal to all federal, state and local government web resources and services.